[[{"header":{"parameterUnit":"m.s-1","parameterCategory":2,"la1":30.2991,"la2":30.254,"lo1":-89.0895,"lo2":-89.0444,"dy":0.0017,"dx":0.0017,"nx":28,"ny":28,"refTime":"2026-01-30T03:00:00:Z","depth":"0","parameterNumber":2,"parameterNumberName":"U-component_of_CURRENTS"},"data":[0,0,0,0,0,0,0,0,0,0,0,0,0,0,0,0,0,0,0,0,0,0,0,0,0,0,0,0,0,0,0,0,0,0,0,0,0,0,0,0,0,0,0,0,0,0,0,0,0,0,0,0,0,0,0,0,0,0,0.378,0.3781,0,0.3826,0.3826,0.3826,0.3801,0.38,0.38,0.3799,0.3814,0.3815,0.3816,0,0,0,0,0,0,0,0,0,0,0,0,0,0.3672,0.3674,0.378,0.3781,0.3782,0.3826,0.3826,0.3826,0.3801,0.38,0.3799,0.3798,0.3813,0.3815,0.3816,0,0,0,0,0,0,0,0,0,0,0,0,0,0.3714,0.3674,0.378,0.3778,0.3779,0.3826,0.3826,0.3826,0.3802,0.38,0.3799,0.3798,0.3813,0.3815,0.3816,0.3852,0,0,0.3822,0.3822,0,0,0,0,0,0,0,0,0.3712,0.3718,0.3777,0.3778,0.3779,0.3811,0.3794,0.3835,0.3802,0.3788,0.3799,0.3797,0.3814,0.3815,0.3821,0.3853,0.3853,0.3822,0.3823,0.3824,0.3824,0,0,0,0,0,0,0,0.3709,0.3716,0.3793,0.3779,0.378,0.3776,0.378,0.3801,0.3803,0.3789,0.3789,0.3802,0.3813,0.3819,0.3821,0.3853,0.3822,0.3823,0.3824,0.3825,0.3996,0.3999,0,0,0,0,0,0,0.3715,0.3713,0.3792,0.3795,0.3747,0.378,0.3784,0.3798,0.3803,0.3805,0.3803,0.38,0.3817,0.3819,0.3821,0.397,0.3824,0.3825,0.3826,0.3992,0.3996,0.4,0,0,0,0,0,0,0.3712,0.3721,0.379,0.3758,0.3768,0.3783,0.3799,0.38,0.3809,0.3815,0.3814,0.3812,0.3816,0.3819,0.3858,0.3966,0.3826,0.3828,0.3988,0.3994,0.3998,0.4199,0,0,0,0,0,0,0.3709,0.372,0.3731,0.3759,0.377,0.3835,0.3801,0.3802,0.3821,0.3819,0.3824,0.3823,0.3815,0.3856,0.386,0.3966,0.3829,0.3984,0.3991,0.3997,0.4188,0.4211,0.423,0,0,0,0,0,0.3705,0.3739,0.3731,0.3741,0.3785,0.3837,0.3842,0.3845,0.3823,0.3844,0.3847,0.3823,0.3901,0.386,0.3864,0.3973,0.3981,0.3989,0.3996,0.4179,0.4206,0.4229,0,0,0,0,0,0,0.3698,0.3741,0.3733,0.3776,0.3807,0.3835,0.3864,0.3854,0.3872,0.3873,0.3854,0.3857,0.3935,0.3916,0.387,0.4039,0.3943,0.3952,0.4081,0.4106,0.4127,0.419,0.383,0,0,0,0,0,0.3702,0.3738,0.3771,0.3806,0.3829,0.3843,0.3862,0.3868,0.389,0.3895,0.3901,0.3922,0.3973,0.4003,0.4024,0.4112,0.4167,0.4186,0.4207,0.4225,0.4279,0.4475,0.4521,0.4026,0.4026,0.4026,0,0,0.3708,0.3739,0.3756,0.3807,0.3833,0.3917,0.3851,0.3902,0.3983,0.3897,0.3996,0.3983,0.4004,0.4108,0.4145,0.4108,0.4388,0.4235,0.4251,0.4296,0.4489,0.4538,0.4582,0.4031,0.403,0.4029,0,0,0.378,0.3771,0.3844,0.3889,0.3947,0.3963,0.3982,0.402,0.4047,0.4122,0.4103,0.4161,0.4203,0.4275,0.4311,0.446,0.4478,0.4452,0.4635,0.4825,0.4869,0.4908,0.5018,0.5065,0.4481,0.4481,0.4482,0,0.3792,0.39,0.3872,0.3975,0.4055,0.3998,0.413,0.4147,0.4192,0.4281,0.4179,0.4352,0.4311,0.4539,0.4553,0.452,0.4596,0.4539,0.486,0.49,0.4937,0.5039,0.509,0.4492,0.4491,0.449,0.4489,0,0.395,0.4036,0.409,0.4209,0.4269,0.4368,0.4408,0.4468,0.447,0.4518,0.4693,0.4654,0.4777,0.4762,0.4682,0.4948,0.4904,0.4852,0.4807,0.5,0.5093,0.5142,0.4507,0.4503,0.45,0.4498,0,0,0.4039,0.4176,0.4211,0.4318,0.4422,0.4499,0.4646,0.4811,0.4937,0.4967,0.518,0.5217,0.5189,0.5224,0.5168,0.5285,0.553,0.517,0.5175,0.5298,0.5925,0.5788,0.5826,0.555,0.556,0.5568,0.5876,0,0.4206,0.4441,0.447,0.4706,0.4851,0.4877,0.5013,0.5138,0.5199,0.5353,0.5411,0.5526,0.5374,0.5405,0.5527,0.5515,0.5673,0.5449,0.5702,0.571,0.5584,0.5885,0.5644,0.5892,0.5923,0.5931,0.5937,0,0.4436,0.4555,0.481,0.501,0.5072,0.5169,0.5422,0.5526,0.5712,0.577,0.5942,0.5923,0.6106,0.5894,0.6148,0.6015,0.6006,0.599,0.6003,0.5851,0.5668,0.5708,0.5979,0.5735,0.6012,0.6006,0.6,0,0.4619,0.4839,0.5047,0.5121,0.529,0.5413,0.5499,0.5681,0.5787,0.6028,0.6107,0.6355,0.6396,0.6537,0.644,0.6337,0.6674,0.6543,0.6457,0.6443,0.6279,0.6234,0.6368,0.6799,0.6798,0.6797,0.6796,0,0.4877,0.5069,0.5126,0.5242,0.546,0.5541,0.5758,0.5885,0.6047,0.618,0.6295,0.6426,0.6545,0.6683,0.6654,0.6721,0.6891,0.6585,0.6572,0.633,0.6288,0.609,0.5976,0.6808,0.6806,0.6804,0.6802,0,0.513,0.5182,0.5387,0.5509,0.555,0.5702,0.5831,0.5944,0.61,0.6277,0.635,0.6543,0.6743,0.6849,0.7034,0.6936,0.6846,0.701,0.6667,0.6609,0.625,0.6155,0.619,0.6007,0.7031,0.7031,0.703,0,0.5312,0.5414,0.5511,0.5544,0.5594,0.5758,0.5819,0.598,0.6059,0.6313,0.638,0.6635,0.678,0.7046,0.7019,0.7132,0.6859,0.6874,0.6639,0.6298,0.6187,0.5958,0.5783,0.6493,0.6488,0.6484,0.6481,0,0.5539,0.5512,0.5591,0.5634,0.5685,0.5785,0.5874,0.5935,0.6084,0.6222,0.638,0.654,0.6791,0.6796,0.6914,0.6916,0.6538,0.6788,0.6585,0.5944,0.5569,0.5356,0.6157,0.6445,0.6448,0.6451,0.6453,0.6454,0.5597,0.5647,0.5609,0.5672,0.571,0.5718,0.5733,0.5799,0.5902,0.6001,0.6256,0.6413,0.6491,0.6648,0.6632,0.6314,0.6312,0.6039,0.6008,0.5848,0.5514,0.6197,0.6354,0.6357,0.636,0.6362,0.6364,0,0.5588,0.5587,0.5624,0.5616,0.5587,0.5646,0.5669,0.5609,0.5614,0.5834,0.5971,0.6043,0.6044,0.6063,0.5793,0.5526,0.5319,0.5343,0.4977,0.4882,0.5645,0.5453,0.5239,0.5239,0.524,0.524,0.524,0.524,0.5555,0.5526,0.5527,0.5441,0.5424,0.5317,0.528,0.5231,0.5321,0.53,0.5345,0.5479,0.5486,0.5391,0.5046,0.4918,0.4505,0.4352,0.4321,0.4826,0.4885,0.4942,0.4734,0.4374,0.4373,0.3355,0.3347,0.3341]},{"header":{"parameterUnit":"m.s-1","parameterCategory":2,"la1":30.2991,"la2":30.254,"lo1":-89.0895,"lo2":-89.0444,"dy":0.0017,"dx":0.0017,"nx":28,"ny":28,"refTime":"2026-01-30T03:00:00:Z","depth":"0","parameterNumber":3,"parameterNumberName":"V-component_of_CURRENTS"},"data":[0,0,0,0,0,0,0,0,0,0,0,0,0,0,0,0,0,0,0,0,0,0,0,0,0,0,0,0,0,0,0,0,0,0,0,0,0,0,0,0,0,0,0,0,0,0,0,0,0,0,0,0,0,0,0,0,0,0,0.0027,0.0027,0,-0.0037,-0.0038,-0.0039,-0.0095,-0.0095,-0.0096,-0.0096,-0.0219,-0.0222,-0.0225,0,0,0,0,0,0,0,0,0,0,0,0,0,0.0028,0.0028,0.0027,0.0026,0.0026,-0.0037,-0.0038,-0.0039,-0.0095,-0.0095,-0.0096,-0.0096,-0.0218,-0.0221,-0.0225,0,0,0,0,0,0,0,0,0,0,0,0,0,0.0,0.0029,0.0027,-0.0008,-0.0011,-0.0037,-0.0038,-0.0039,-0.0095,-0.0095,-0.0096,-0.0097,-0.0217,-0.0221,-0.0225,-0.0239,0,0,-0.0238,-0.024,0,0,0,0,0,0,0,0,0.0002,-0.0,-0.0002,-0.0005,-0.001,-0.0057,-0.0083,-0.0108,-0.0095,-0.0066,-0.0096,-0.0097,-0.0168,-0.0176,-0.0189,-0.0244,-0.025,-0.0239,-0.0241,-0.0243,-0.0244,0,0,0,0,0,0,0,0.0004,0.0002,-0.0001,-0.0003,-0.0007,-0.0045,-0.005,-0.0088,-0.0115,-0.0068,-0.0072,-0.0075,-0.0171,-0.0185,-0.0193,-0.0252,-0.0239,-0.0242,-0.0245,-0.0247,-0.033,-0.033,0,0,0,0,0,0,0.0021,0.0004,0.0001,-0.0002,-0.0003,-0.0044,-0.0049,-0.0043,-0.0114,-0.0124,-0.0074,-0.0077,-0.0177,-0.0188,-0.0197,-0.0202,-0.0243,-0.0247,-0.025,-0.0331,-0.033,-0.033,0,0,0,0,0,0,0.0022,0.0022,0.0004,0.0,-0.0004,-0.0043,-0.0036,-0.0044,-0.0055,-0.0117,-0.013,-0.0077,-0.0178,-0.0191,-0.0224,-0.0208,-0.0249,-0.0253,-0.0331,-0.033,-0.033,-0.022,0,0,0,0,0,0,0.0022,0.0023,0.003,0.0002,-0.0003,0.0001,-0.0035,-0.0044,-0.0055,-0.006,-0.0124,-0.0136,-0.018,-0.0217,-0.0228,-0.0214,-0.0256,-0.0331,-0.0331,-0.033,-0.0225,-0.0216,-0.0209,0,0,0,0,0,0.0023,0.0043,0.0031,0.0031,0.001,0.0002,-0.0004,-0.0037,-0.0054,-0.0051,-0.0095,-0.0134,-0.0221,-0.022,-0.0233,-0.022,-0.0332,-0.0331,-0.033,-0.0228,-0.0218,-0.0209,0,0,0,0,0,0,0.0047,0.0039,0.0025,0.0042,0.0027,-0.0007,-0.0008,-0.0028,-0.006,-0.0067,-0.0128,-0.0143,-0.0168,-0.0209,-0.0207,-0.0244,-0.0283,-0.0285,-0.0201,-0.0192,-0.0185,-0.0123,-0.026,0,0,0,0,0,0.0058,0.0069,0.0052,0.0063,0.006,0.0027,0.0018,0.0,-0.003,-0.0045,-0.0087,-0.0136,-0.0175,-0.0194,-0.0239,-0.0254,-0.0235,-0.0256,-0.0249,-0.0242,-0.0201,-0.0164,-0.0147,-0.0327,-0.0327,-0.0327,0,0,0.0069,0.0066,0.0072,0.0069,0.0052,0.0068,0.002,0.0017,0.0032,-0.0053,-0.0053,-0.0113,-0.0176,-0.0195,-0.021,-0.0225,-0.018,-0.0241,-0.0234,-0.0196,-0.0161,-0.0142,-0.0126,-0.0327,-0.0327,-0.0327,0,0,0.011,0.0097,0.0126,0.0121,0.0111,0.0095,0.0101,0.0075,0.0064,0.0049,-0.0005,-0.0036,-0.011,-0.013,-0.0156,-0.013,-0.0145,-0.0167,-0.007,-0.0035,-0.0018,-0.0003,0.0059,0.0078,-0.0157,-0.0157,-0.0157,0,0.0123,0.0166,0.013,0.0158,0.0175,0.0118,0.0162,0.0139,0.0107,0.0122,0.006,0.0007,-0.0068,-0.0046,-0.0058,-0.0106,-0.0083,-0.0098,-0.0019,-0.0004,0.0009,0.0069,0.0089,-0.0151,-0.0152,-0.0153,-0.0153,0,0.0191,0.0223,0.0239,0.0264,0.0268,0.0295,0.0271,0.0272,0.024,0.0226,0.0229,0.0139,0.0129,0.0072,0.0001,0.0058,0.0047,-0.0014,-0.0029,0.0035,0.0092,0.0111,-0.0144,-0.0146,-0.0147,-0.0149,0,0,0.0248,0.0285,0.0295,0.0342,0.0337,0.0362,0.0382,0.0414,0.0471,0.0397,0.0481,0.0361,0.0333,0.0303,0.0225,0.0221,0.0301,0.0142,0.0141,0.0229,0.0411,0.0334,0.0347,0.0252,0.0255,0.0258,0.042,0,0.0325,0.042,0.0411,0.0506,0.0563,0.0531,0.0567,0.0578,0.0574,0.0631,0.0555,0.0576,0.0418,0.0423,0.04,0.035,0.0353,0.0265,0.0314,0.0318,0.0261,0.0366,0.0348,0.0484,0.0438,0.0442,0.0444,0,0.0419,0.0475,0.0583,0.0672,0.0693,0.0726,0.0819,0.0848,0.0884,0.0884,0.0898,0.0849,0.0865,0.0694,0.0688,0.0643,0.0539,0.0466,0.047,0.0381,0.0276,0.0406,0.052,0.0187,0.0473,0.0471,0.0469,0,0.0521,0.0613,0.0714,0.0738,0.0802,0.0849,0.0885,0.0928,0.0983,0.1073,0.1128,0.114,0.1159,0.107,0.0907,0.0818,0.0891,0.0761,0.06,0.0595,0.0584,0.0571,0.0407,0.0737,0.0737,0.0736,0.0736,0,0.0634,0.0721,0.0769,0.0824,0.0944,0.096,0.1086,0.1121,0.1204,0.1312,0.1277,0.1373,0.124,0.1241,0.1064,0.0942,0.1036,0.067,0.0643,0.0617,0.0606,0.0313,0.0128,0.0742,0.0741,0.074,0.0739,0,0.0729,0.0767,0.0876,0.0957,0.099,0.1072,0.117,0.1259,0.1337,0.1492,0.1531,0.1591,0.1641,0.1505,0.1405,0.1153,0.0861,0.0933,0.0924,0.0889,0.0372,0.0196,0.0072,-0.0054,0.0822,0.0821,0.082,0,0.0787,0.0848,0.0948,0.0999,0.1032,0.1143,0.121,0.1304,0.1406,0.1623,0.1712,0.182,0.1945,0.1821,0.1482,0.1273,0.0907,0.0953,0.0734,0.0386,0.0171,0.0034,-0.0074,0.0786,0.0786,0.0785,0.0784,0,0.0857,0.0874,0.0938,0.105,0.1129,0.1249,0.1368,0.1476,0.1624,0.1806,0.2064,0.2214,0.2126,0.1969,0.161,0.1356,0.071,0.0921,0.0582,0.0159,-0.001,-0.0158,0.0643,0.0778,0.0779,0.0779,0.0779,0.078,0.0862,0.0905,0.0967,0.1078,0.1186,0.1348,0.1483,0.1659,0.1897,0.2253,0.2346,0.2717,0.232,0.1898,0.1498,0.0645,0.0664,0.032,0.0158,0.007,-0.0142,0.0641,0.0698,0.0698,0.0698,0.0698,0.0698,0,0.0849,0.0901,0.0994,0.1136,0.1273,0.1341,0.1579,0.1775,0.2111,0.2539,0.2852,0.2978,0.2396,0.1759,0.0637,-0.0001,-0.0244,-0.0368,-0.0577,-0.0635,0.01,-0.0003,-0.0122,-0.0122,-0.0122,-0.0121,-0.0121,-0.0121,0.0836,0.0899,0.0957,0.1167,0.1295,0.1537,0.17,0.2042,0.2418,0.3025,0.3419,0.3698,0.3119,0.0987,-0.0434,-0.0741,-0.1221,-0.1297,-0.1504,-0.1066,-0.1016,-0.0968,-0.1112,-0.1461,-0.1463,-0.2168,-0.2176,-0.2181]}],[{"header":{"parameterUnit":"m.s-1","parameterCategory":2,"la1":30.2991,"la2":30.254,"lo1":-89.0895,"lo2":-89.0444,"dy":0.0017,"dx":0.0017,"nx":28,"ny":28,"refTime":"2026-01-30T03:00:00:Z","depth":"2","parameterNumber":2,"parameterNumberName":"U-component_of_CURRENTS"},"data":[0,0,0,0,0,0,0,0,0,0,0,0,0,0,0,0,0,0,0,0,0,0,0,0,0,0,0,0,0,0,0,0,0,0,0,0,0,0,0,0,0,0,0,0,0,0,0,0,0,0,0,0,0,0,0,0,0,0,0.307,0.3071,0,0.3128,0.3129,0.3129,0.3133,0.3133,0.3132,0.3132,0.3155,0.3156,0.3156,0,0,0,0,0,0,0,0,0,0,0,0,0,0.2972,0.2974,0.307,0.3071,0.3072,0.3128,0.3129,0.3129,0.3133,0.3133,0.3132,0.3132,0.3154,0.3155,0.3157,0,0,0,0,0,0,0,0,0,0,0,0,0,0.3018,0.2974,0.307,0.3083,0.3085,0.3128,0.3129,0.3129,0.3133,0.3133,0.3132,0.3132,0.3154,0.3155,0.3157,0.3175,0,0,0.3161,0.3161,0,0,0,0,0,0,0,0,0.3015,0.3021,0.308,0.3083,0.3085,0.3126,0.3103,0.3144,0.3133,0.3112,0.3132,0.3132,0.3144,0.3147,0.3154,0.3176,0.3177,0.3161,0.3162,0.3162,0.3163,0,0,0,0,0,0,0,0.3012,0.3018,0.309,0.3082,0.3084,0.309,0.3096,0.311,0.3127,0.3113,0.3115,0.3127,0.3145,0.3153,0.3155,0.3177,0.3161,0.3162,0.3163,0.3164,0.3277,0.328,0,0,0,0,0,0,0.3012,0.3016,0.3088,0.3092,0.3052,0.3093,0.3098,0.311,0.3127,0.3131,0.3127,0.3127,0.3151,0.3153,0.3155,0.3224,0.3162,0.3164,0.3164,0.3275,0.3278,0.328,0,0,0,0,0,0,0.301,0.3018,0.3085,0.3057,0.3067,0.3095,0.3108,0.3112,0.3133,0.3139,0.3141,0.3146,0.3151,0.3154,0.319,0.3223,0.3164,0.3166,0.3273,0.3276,0.3279,0.3331,0,0,0,0,0,0,0.3006,0.3017,0.3028,0.3058,0.3069,0.3122,0.3109,0.3114,0.3142,0.3143,0.3156,0.3157,0.315,0.3188,0.3191,0.3224,0.3167,0.327,0.3274,0.3278,0.3327,0.3336,0.3344,0,0,0,0,0,0.3003,0.3019,0.3029,0.3038,0.3083,0.3123,0.313,0.3145,0.3144,0.316,0.3175,0.3157,0.3217,0.3191,0.3194,0.3228,0.3268,0.3273,0.3278,0.3323,0.3334,0.3344,0,0,0,0,0,0,0.2981,0.3023,0.3033,0.3061,0.3096,0.3125,0.3144,0.3157,0.3182,0.3184,0.3182,0.3185,0.3231,0.3227,0.3199,0.3276,0.3241,0.3247,0.3275,0.3285,0.3294,0.3342,0.3168,0,0,0,0,0,0.2984,0.3007,0.3048,0.3072,0.3091,0.3121,0.3141,0.3157,0.3183,0.3194,0.3205,0.3225,0.3254,0.3266,0.3287,0.3325,0.3367,0.3353,0.3361,0.3368,0.3412,0.3514,0.3536,0.3297,0.3297,0.3296,0,0,0.298,0.3008,0.302,0.3069,0.3095,0.3135,0.3131,0.3171,0.3214,0.3193,0.3247,0.3255,0.3273,0.3318,0.3339,0.3318,0.3452,0.3374,0.338,0.3422,0.3522,0.3545,0.3566,0.33,0.3299,0.3299,0,0,0.299,0.3013,0.304,0.3078,0.3131,0.3152,0.3169,0.3213,0.3242,0.329,0.3296,0.3336,0.336,0.3394,0.341,0.3484,0.3496,0.348,0.3559,0.3656,0.3677,0.3696,0.3751,0.3775,0.3481,0.3481,0.3481,0,0.2985,0.3031,0.3055,0.31,0.3141,0.3163,0.3213,0.3248,0.33,0.3345,0.3314,0.3411,0.3405,0.3501,0.3521,0.3505,0.3553,0.351,0.3669,0.3689,0.3707,0.3759,0.3785,0.3484,0.3484,0.3483,0.3483,0,0.3027,0.3068,0.309,0.3154,0.3197,0.3244,0.3301,0.3345,0.337,0.3414,0.3511,0.3521,0.3589,0.3581,0.3569,0.3704,0.3691,0.3667,0.3641,0.3735,0.3783,0.3808,0.3489,0.3487,0.3486,0.3486,0,0,0.3009,0.31,0.3111,0.3152,0.3237,0.3272,0.3355,0.3447,0.3507,0.3563,0.366,0.3713,0.3739,0.3764,0.3764,0.3836,0.3974,0.3814,0.3818,0.3868,0.4181,0.4059,0.4074,0.3984,0.399,0.3994,0.415,0,0.304,0.3122,0.3171,0.3252,0.33,0.3364,0.3431,0.3518,0.3583,0.3673,0.3744,0.3822,0.3805,0.3833,0.392,0.3969,0.4051,0.3934,0.4086,0.4091,0.3971,0.4104,0.3769,0.3872,0.4175,0.4179,0.4182,0,0.3075,0.3127,0.3208,0.3306,0.3333,0.338,0.3504,0.3571,0.371,0.3765,0.389,0.3947,0.4095,0.4034,0.4236,0.4168,0.4202,0.4223,0.4229,0.4128,0.4019,0.3835,0.3908,0.4225,0.4222,0.4219,0.4216,0,0.3046,0.3157,0.3217,0.3255,0.336,0.3413,0.3471,0.36,0.3679,0.3841,0.3916,0.4097,0.4172,0.43,0.438,0.4328,0.4571,0.4491,0.4419,0.4408,0.4163,0.4121,0.4646,0.4646,0.4645,0.4645,0.4644,0,0.306,0.31,0.3202,0.3229,0.3296,0.3391,0.348,0.3559,0.3711,0.3805,0.3965,0.4073,0.4248,0.4401,0.446,0.4544,0.4655,0.4485,0.4468,0.4165,0.4124,0.4458,0.4434,0.4651,0.4649,0.4648,0.4647,0,0.299,0.3068,0.3115,0.3229,0.3272,0.3305,0.3453,0.351,0.3674,0.3808,0.3875,0.4104,0.4282,0.4446,0.4624,0.4614,0.4712,0.47,0.4316,0.4251,0.4455,0.4432,0.4644,0.4642,0.464,0.4638,0.4637,0,0.2942,0.2976,0.3072,0.3095,0.3137,0.3223,0.327,0.3448,0.3533,0.3808,0.3863,0.4103,0.4227,0.4472,0.4515,0.463,0.4696,0.4338,0.4171,0.4508,0.447,0.445,0.443,0.3856,0.3848,0.3842,0.3837,0,0.2849,0.2885,0.2918,0.2968,0.3014,0.3075,0.3182,0.3247,0.3456,0.3601,0.378,0.3918,0.4145,0.4111,0.4259,0.4268,0.4298,0.4209,0.4722,0.3895,0.3774,0.3732,0.3738,0.3781,0.3786,0.379,0.3793,0.3796,0.2755,0.2736,0.2792,0.2825,0.2872,0.29,0.2877,0.3019,0.313,0.3298,0.3546,0.3648,0.3765,0.3812,0.377,0.3747,0.4015,0.3838,0.3854,0.3877,0.3746,0.3627,0.358,0.3584,0.3588,0.3591,0.3594,0,0.2606,0.2629,0.266,0.2661,0.262,0.2737,0.2787,0.274,0.2769,0.3031,0.317,0.3034,0.3089,0.3224,0.3113,0.3148,0.3091,0.3013,0.29,0.296,0.3013,0.2832,0.2427,0.2423,0.2419,0.2415,0,0,0.254,0.25,0.2523,0.2422,0.2429,0.2333,0.2316,0.2288,0.2401,0.2461,0.2561,0.291,0.3116,0.2702,0.2687,0.253,0.2707,0.2437,0.3384,0.3309,0.3355,0.3517,0.3311,0,0,0,0,0]},{"header":{"parameterUnit":"m.s-1","parameterCategory":2,"la1":30.2991,"la2":30.254,"lo1":-89.0895,"lo2":-89.0444,"dy":0.0017,"dx":0.0017,"nx":28,"ny":28,"refTime":"2026-01-30T03:00:00:Z","depth":"2","parameterNumber":3,"parameterNumberName":"V-component_of_CURRENTS"},"data":[0,0,0,0,0,0,0,0,0,0,0,0,0,0,0,0,0,0,0,0,0,0,0,0,0,0,0,0,0,0,0,0,0,0,0,0,0,0,0,0,0,0,0,0,0,0,0,0,0,0,0,0,0,0,0,0,0,0,0.0106,0.0105,0,0.0044,0.0043,0.0042,-0.0009,-0.0009,-0.0009,-0.001,-0.0105,-0.0107,-0.0109,0,0,0,0,0,0,0,0,0,0,0,0,0,0.0102,0.0102,0.0106,0.0105,0.0104,0.0044,0.0043,0.0042,-0.0009,-0.0009,-0.001,-0.001,-0.0104,-0.0106,-0.0109,0,0,0,0,0,0,0,0,0,0,0,0,0,0.0076,0.0103,0.0106,0.0073,0.007,0.0044,0.0043,0.0042,-0.0009,-0.0009,-0.001,-0.001,-0.0103,-0.0106,-0.0109,-0.0119,0,0,-0.012,-0.0121,0,0,0,0,0,0,0,0,0.0078,0.0076,0.0079,0.0076,0.0072,0.0027,0.0007,-0.0013,-0.0009,0.0019,-0.001,-0.001,-0.0062,-0.0069,-0.0082,-0.0124,-0.0128,-0.012,-0.0122,-0.0123,-0.0124,0,0,0,0,0,0,0,0.008,0.0078,0.0079,0.0078,0.0074,0.0036,0.0032,0.0003,-0.002,0.0017,0.0013,0.001,-0.0065,-0.0078,-0.0084,-0.0129,-0.012,-0.0123,-0.0125,-0.0126,-0.018,-0.018,0,0,0,0,0,0,0.0097,0.0081,0.0081,0.0077,0.0076,0.0037,0.0032,0.004,-0.0019,-0.0028,0.001,0.0008,-0.0072,-0.008,-0.0088,-0.0085,-0.0123,-0.0126,-0.0128,-0.0181,-0.018,-0.018,0,0,0,0,0,0,0.0097,0.0098,0.0084,0.0078,0.0074,0.0038,0.0046,0.0039,0.0029,-0.0023,-0.0033,0.0008,-0.0073,-0.0083,-0.0106,-0.009,-0.0128,-0.0131,-0.0182,-0.0181,-0.018,-0.009,0,0,0,0,0,0,0.0097,0.0099,0.0106,0.008,0.0075,0.0082,0.0047,0.0038,0.0028,0.0024,-0.0028,-0.0038,-0.0074,-0.0101,-0.011,-0.0095,-0.0133,-0.0182,-0.0181,-0.018,-0.0094,-0.0087,-0.008,0,0,0,0,0,0.0098,0.0121,0.0107,0.0107,0.0089,0.0083,0.0077,0.0047,0.0029,0.0033,-0.0005,-0.0036,-0.0101,-0.0103,-0.0113,-0.0099,-0.0183,-0.0181,-0.018,-0.0097,-0.0088,-0.008,0,0,0,0,0,0,0.0124,0.0118,0.0102,0.0122,0.0107,0.0075,0.0076,0.0055,0.0028,0.0022,-0.003,-0.0041,-0.0057,-0.009,-0.0091,-0.0113,-0.0147,-0.0147,-0.008,-0.0072,-0.0065,-0.004,-0.0136,0,0,0,0,0,0.0134,0.0149,0.0131,0.0145,0.0142,0.0109,0.0101,0.0083,0.0057,0.0044,0.0008,-0.0031,-0.006,-0.0075,-0.0108,-0.0117,-0.0153,-0.0115,-0.0108,-0.0102,-0.0089,-0.0131,-0.0127,-0.0176,-0.0176,-0.0176,0,0,0.0147,0.0145,0.0152,0.015,0.0134,0.0148,0.0102,0.0101,0.011,0.0038,0.0036,-0.001,-0.0059,-0.007,-0.008,-0.0095,-0.0108,-0.0101,-0.0095,-0.0085,-0.0129,-0.0125,-0.012,-0.0175,-0.0175,-0.0175,0,0,0.019,0.018,0.0209,0.0205,0.0194,0.0177,0.0182,0.0157,0.0142,0.013,0.0082,0.005,0.0007,-0.0023,-0.0045,-0.002,-0.0072,-0.0031,0.0027,-0.0013,-0.0009,-0.0006,-0.0045,-0.0046,-0.0025,-0.0024,-0.0024,0,0.0205,0.0243,0.0215,0.0242,0.0251,0.0199,0.0235,0.0212,0.0181,0.0176,0.0143,0.0076,0.003,0.0019,0.0026,-0.0003,-0.0034,0.0002,-0.0003,-0.0001,0.0,-0.004,-0.0042,-0.002,-0.002,-0.0021,-0.0021,0,0.0272,0.0299,0.0316,0.0336,0.0338,0.0359,0.0333,0.0324,0.0294,0.0268,0.0242,0.0171,0.0135,0.0112,0.0076,0.007,0.0042,0.0009,-0.002,0.0011,-0.0034,-0.0038,-0.0013,-0.0015,-0.0016,-0.0018,0,0,0.0319,0.036,0.0365,0.04,0.0395,0.0412,0.0418,0.042,0.0435,0.0373,0.0384,0.0311,0.0264,0.0237,0.0179,0.014,0.0116,0.0089,0.0085,0.006,0.0031,-0.0009,-0.0018,0.0084,0.0084,0.0083,-0.0004,0,0.0383,0.0468,0.0463,0.0536,0.058,0.0542,0.0559,0.0545,0.0515,0.0506,0.0417,0.0399,0.0315,0.03,0.0247,0.0156,0.011,0.0143,-0.0003,-0.0007,-0.0039,-0.0022,0.0005,-0.0072,-0.0009,-0.0009,-0.001,0,0.0453,0.0506,0.0596,0.0655,0.067,0.0695,0.072,0.073,0.0689,0.0665,0.0614,0.0541,0.0477,0.0396,0.025,0.0277,0.0167,0.0081,0.0075,0.0007,-0.0054,-0.0095,-0.0083,-0.0018,-0.0017,-0.0016,-0.0016,0,0.0517,0.0598,0.068,0.07,0.075,0.0776,0.0793,0.0777,0.0815,0.0766,0.0781,0.0668,0.0632,0.0477,0.0295,0.0276,0.0129,0.0076,-0.0069,-0.0073,-0.0095,-0.01,-0.0032,-0.0032,-0.0032,-0.0032,-0.0031,0,0.0594,0.0658,0.0719,0.0766,0.0864,0.0857,0.0945,0.0931,0.0948,0.1013,0.0873,0.0893,0.0653,0.0534,0.0344,0.0136,0.0162,-0.0052,-0.0096,-0.0064,-0.0065,-0.0055,-0.0056,-0.0035,-0.0034,-0.0034,-0.0033,0,0.065,0.0687,0.0793,0.087,0.0899,0.0966,0.1067,0.1139,0.1117,0.1194,0.119,0.1078,0.0912,0.0659,0.0411,0.0219,0.0009,-0.0076,-0.0022,-0.0059,-0.0182,-0.0178,-0.0249,-0.0251,-0.0253,-0.0254,-0.0256,0,0.0689,0.0749,0.0874,0.0952,0.0992,0.1096,0.1184,0.122,0.1312,0.1321,0.1381,0.1232,0.1155,0.0761,0.0393,0.0042,0.0,-0.0167,-0.0212,-0.0167,-0.0203,-0.0196,-0.019,-0.0206,-0.0207,-0.0208,-0.0208,0,0.0769,0.0807,0.0898,0.106,0.1174,0.132,0.1444,0.155,0.16,0.1646,0.1688,0.1617,0.1219,0.0858,0.0353,0.0115,-0.0115,-0.0192,-0.015,-0.0155,-0.0134,-0.0167,-0.0161,-0.0214,-0.0213,-0.0213,-0.0212,-0.0212,0.0829,0.0903,0.1026,0.1181,0.1327,0.1522,0.1658,0.179,0.1936,0.2012,0.1932,0.1816,0.1366,0.072,0.0293,-0.0158,-0.0147,-0.0307,-0.0302,-0.0297,-0.0275,-0.0259,-0.0357,-0.0358,-0.0358,-0.0358,-0.0358,0,0.0907,0.0993,0.1143,0.1339,0.1522,0.1587,0.1823,0.1952,0.2126,0.2175,0.2175,0.1732,0.1296,0.0797,0.0126,-0.0283,-0.0305,-0.0407,-0.0344,-0.0337,-0.033,-0.0309,-0.0401,-0.0402,-0.0403,-0.0404,0,0,0.095,0.1095,0.1172,0.1465,0.162,0.1871,0.2019,0.2177,0.2265,0.2301,0.2221,0.207,0.1443,0.095,0.0382,0.0004,-0.0061,-0.0072,0.0004,0.0154,0.0166,-0.0238,-0.0193,0,0,0,0,0]}],[{"header":{"parameterUnit":"m.s-1","parameterCategory":2,"la1":30.2991,"la2":30.254,"lo1":-89.0895,"lo2":-89.0444,"dy":0.0017,"dx":0.0017,"nx":28,"ny":28,"refTime":"2026-01-30T03:00:00:Z","depth":"4","parameterNumber":2,"parameterNumberName":"U-component_of_CURRENTS"},"data":[0,0,0,0,0,0,0,0,0,0,0,0,0,0,0,0,0,0,0,0,0,0,0,0,0,0,0,0,0,0,0,0,0,0,0,0,0,0,0,0,0,0,0,0,0,0,0,0,0,0,0,0,0,0,0,0,0,0,0.2019,0.202,0,0.2112,0.2113,0.2113,0.2185,0.2186,0.2187,0.2188,0.2286,0.2288,0.229,0,0,0,0,0,0,0,0,0,0,0,0,0,0.1901,0.1903,0.2019,0.202,0.2022,0.2112,0.2113,0.2114,0.2185,0.2186,0.2187,0.2188,0.2286,0.2288,0.229,0,0,0,0,0,0,0,0,0,0,0,0,0,0.1967,0.1903,0.2019,0.207,0.2075,0.2111,0.2113,0.2114,0.2185,0.2186,0.2187,0.2189,0.2285,0.2288,0.229,0.228,0,0,0.2298,0.23,0,0,0,0,0,0,0,0,0.1963,0.1971,0.2061,0.2066,0.2073,0.214,0.2108,0.2171,0.2184,0.2141,0.2188,0.2189,0.2239,0.2245,0.2256,0.2285,0.2289,0.2299,0.23,0.2302,0.2302,0,0,0,0,0,0,0,0.1958,0.1967,0.2053,0.2062,0.207,0.2087,0.2098,0.212,0.2179,0.2145,0.2151,0.2164,0.2242,0.2253,0.2259,0.229,0.2299,0.2301,0.2303,0.2304,0.2445,0.2447,0,0,0,0,0,0,0.195,0.1963,0.205,0.2056,0.2023,0.2089,0.21,0.2115,0.2179,0.2191,0.2163,0.2167,0.2248,0.2256,0.2263,0.2369,0.2301,0.2304,0.2306,0.2443,0.2446,0.2448,0,0,0,0,0,0,0.1947,0.1957,0.2047,0.2013,0.2026,0.2089,0.2106,0.2116,0.2174,0.2193,0.2205,0.2215,0.2249,0.2259,0.2327,0.2369,0.2305,0.2308,0.2441,0.2444,0.2447,0.2508,0,0,0,0,0,0,0.1944,0.1956,0.1984,0.2013,0.2028,0.2095,0.2105,0.2117,0.2178,0.2186,0.224,0.2248,0.2251,0.2323,0.2329,0.2372,0.231,0.2438,0.2442,0.2446,0.2503,0.2513,0.2521,0,0,0,0,0,0.1939,0.1963,0.1984,0.1996,0.2058,0.2096,0.2107,0.2153,0.218,0.2209,0.2254,0.2249,0.2353,0.2327,0.2334,0.2378,0.2436,0.2441,0.2446,0.2499,0.2511,0.2521,0,0,0,0,0,0,0.1927,0.1974,0.1998,0.2037,0.2078,0.211,0.2147,0.2177,0.2235,0.2258,0.2275,0.2286,0.2363,0.2363,0.2334,0.2432,0.2394,0.2401,0.2433,0.2444,0.2453,0.2459,0.2312,0,0,0,0,0,0.1936,0.1971,0.2012,0.2049,0.2073,0.2119,0.215,0.2184,0.2228,0.2257,0.2296,0.2339,0.2379,0.2408,0.244,0.249,0.2499,0.2525,0.2534,0.2541,0.2553,0.2606,0.262,0.2464,0.2464,0.2464,0,0,0.1941,0.1974,0.1995,0.205,0.2088,0.2127,0.2142,0.2201,0.2245,0.2257,0.2342,0.2377,0.2402,0.2464,0.2498,0.2475,0.2592,0.2547,0.2553,0.2561,0.2612,0.2627,0.2641,0.2467,0.2467,0.2466,0,0,0.1952,0.2,0.2029,0.2069,0.2135,0.2163,0.219,0.2251,0.2295,0.2366,0.2394,0.2458,0.2514,0.2545,0.2562,0.264,0.264,0.2657,0.2705,0.2757,0.277,0.2781,0.2812,0.2826,0.2657,0.2658,0.2658,0,0.1962,0.2001,0.2045,0.2083,0.2124,0.2183,0.2225,0.2272,0.2352,0.2394,0.2405,0.2524,0.2549,0.2624,0.2657,0.2661,0.2686,0.2659,0.2768,0.2779,0.279,0.2819,0.2833,0.2661,0.2661,0.266,0.266,0,0.198,0.2032,0.2055,0.2124,0.2173,0.2221,0.2287,0.2353,0.2414,0.2459,0.2564,0.2607,0.2678,0.2697,0.2703,0.2799,0.2792,0.2774,0.2736,0.281,0.2835,0.2849,0.2666,0.2665,0.2664,0.2663,0,0,0.1943,0.2047,0.206,0.2099,0.2203,0.2234,0.2327,0.241,0.2474,0.256,0.2641,0.2725,0.2769,0.2794,0.282,0.2867,0.2965,0.2864,0.2865,0.2887,0.308,0.2891,0.2888,0.2974,0.2977,0.298,0.3066,0,0.1947,0.2013,0.2075,0.2152,0.2189,0.2283,0.2356,0.2448,0.2532,0.2625,0.2698,0.2786,0.2798,0.2851,0.2905,0.2959,0.3006,0.2942,0.3012,0.3014,0.2831,0.2899,0.2989,0.3076,0.308,0.3082,0.3084,0,0.1936,0.1984,0.2056,0.2162,0.219,0.2254,0.2386,0.246,0.2602,0.2674,0.2785,0.285,0.2966,0.2949,0.3083,0.305,0.308,0.3101,0.3105,0.2916,0.285,0.299,0.3108,0.3106,0.3105,0.3103,0.3101,0,0.1858,0.1967,0.2024,0.2062,0.2192,0.2257,0.2337,0.248,0.2561,0.2721,0.2804,0.2933,0.3023,0.3091,0.3163,0.3143,0.328,0.3246,0.3098,0.3085,0.3202,0.3189,0.3327,0.3327,0.3327,0.3327,0.3327,0,0.1812,0.1858,0.1998,0.2023,0.2098,0.2216,0.2318,0.2421,0.2588,0.2678,0.2832,0.2919,0.3071,0.3165,0.3198,0.3193,0.3315,0.3119,0.3099,0.3225,0.3214,0.3212,0.3197,0.333,0.3329,0.3329,0.3328,0,0.1706,0.1802,0.1864,0.201,0.2061,0.2113,0.2296,0.2363,0.255,0.2678,0.2743,0.2953,0.3074,0.3185,0.3297,0.3222,0.3237,0.32,0.3337,0.3322,0.2999,0.2987,0.3038,0.3032,0.3027,0.3023,0.3019,0,0.1646,0.1676,0.1827,0.1864,0.1935,0.2042,0.2113,0.2316,0.2395,0.2666,0.2705,0.2911,0.3021,0.3033,0.3158,0.32,0.3167,0.3141,0.3058,0.2996,0.2973,0.2968,0.2963,0.3011,0.301,0.3009,0.3007,0,0.1524,0.1605,0.1657,0.1744,0.1822,0.1893,0.2018,0.2068,0.2296,0.2496,0.2612,0.2699,0.2828,0.2916,0.2976,0.2996,0.3136,0.3088,0.3098,0.3019,0.2964,0.2945,0.2946,0.299,0.2993,0.2994,0.2995,0,0.1434,0.1443,0.1536,0.1599,0.1684,0.1717,0.1802,0.1911,0.2028,0.2338,0.2366,0.2591,0.2788,0.2812,0.2863,0.2876,0.2834,0.2726,0.2753,0.2774,0.2649,0.2537,0.2424,0,0,0,0,0,0.1328,0.1337,0.1383,0.1438,0.1518,0.1574,0.1726,0.1827,0.2057,0.2075,0.2224,0.2335,0.245,0.2568,0.2532,0.2744,0.2833,0.2687,0.2718,0.2894,0.2914,0.2792,0,0,0,0,0,0,0.1256,0.1293,0.1329,0.1298,0.1308,0.1378,0.1466,0.162,0.165,0.19,0.1979,0.2177,0.2325,0.2445,0.2481,0.2516,0.2483,0.2836,0.2829,0.2883,0.2901,0.2917,0.2798,0,0,0,0,0]},{"header":{"parameterUnit":"m.s-1","parameterCategory":2,"la1":30.2991,"la2":30.254,"lo1":-89.0895,"lo2":-89.0444,"dy":0.0017,"dx":0.0017,"nx":28,"ny":28,"refTime":"2026-01-30T03:00:00:Z","depth":"4","parameterNumber":3,"parameterNumberName":"V-component_of_CURRENTS"},"data":[0,0,0,0,0,0,0,0,0,0,0,0,0,0,0,0,0,0,0,0,0,0,0,0,0,0,0,0,0,0,0,0,0,0,0,0,0,0,0,0,0,0,0,0,0,0,0,0,0,0,0,0,0,0,0,0,0,0,0.0108,0.0108,0,0.0067,0.0066,0.0066,0.0031,0.0031,0.003,0.003,-0.0037,-0.0038,-0.004,0,0,0,0,0,0,0,0,0,0,0,0,0,0.0102,0.0102,0.0108,0.0108,0.0107,0.0067,0.0066,0.0066,0.0031,0.0031,0.003,0.003,-0.0036,-0.0038,-0.004,0,0,0,0,0,0,0,0,0,0,0,0,0,0.0086,0.0102,0.0108,0.0086,0.0084,0.0067,0.0066,0.0065,0.0031,0.0031,0.003,0.003,-0.0036,-0.0038,-0.004,-0.0047,0,0,-0.0047,-0.0048,0,0,0,0,0,0,0,0,0.0087,0.0086,0.009,0.0087,0.0085,0.0055,0.004,0.0027,0.0031,0.005,0.003,0.003,-0.0007,-0.0012,-0.002,-0.005,-0.0053,-0.0047,-0.0049,-0.005,-0.005,0,0,0,0,0,0,0,0.0088,0.0087,0.009,0.0089,0.0086,0.0059,0.0057,0.0037,0.0022,0.0048,0.0046,0.0043,-0.0009,-0.0018,-0.0022,-0.0054,-0.0047,-0.0049,-0.0051,-0.0052,-0.0088,-0.0088,0,0,0,0,0,0,0.0099,0.0089,0.0092,0.0089,0.0086,0.006,0.0058,0.0064,0.0023,0.0017,0.0044,0.0042,-0.0014,-0.002,-0.0025,-0.0021,-0.005,-0.0052,-0.0053,-0.0089,-0.0088,-0.0088,0,0,0,0,0,0,0.0099,0.01,0.0093,0.0088,0.0086,0.0061,0.0068,0.0063,0.0057,0.002,0.0013,0.0044,-0.0015,-0.0022,-0.0037,-0.0025,-0.0053,-0.0055,-0.0089,-0.0088,-0.0088,-0.0023,0,0,0,0,0,0,0.01,0.0101,0.0108,0.009,0.0087,0.0093,0.0068,0.0063,0.0057,0.0054,0.0018,0.0011,-0.0015,-0.0034,-0.004,-0.0028,-0.0057,-0.009,-0.0089,-0.0088,-0.0026,-0.002,-0.0016,0,0,0,0,0,0.01,0.0118,0.0109,0.0109,0.0098,0.0094,0.0091,0.007,0.0058,0.0062,0.0035,0.0012,-0.0033,-0.0035,-0.0042,-0.0031,-0.009,-0.0089,-0.0088,-0.0028,-0.0021,-0.0016,0,0,0,0,0,0,0.0119,0.0116,0.0105,0.0121,0.0111,0.0089,0.0091,0.0076,0.0058,0.0055,0.0017,0.0009,-0.0001,-0.0025,-0.0026,-0.004,-0.0065,-0.0065,-0.0017,-0.0011,-0.0006,0.0009,-0.0059,0,0,0,0,0,0.0128,0.014,0.0127,0.0139,0.0137,0.0114,0.0109,0.0097,0.0079,0.0071,0.0045,0.0018,-0.0003,-0.0013,-0.0036,-0.0042,-0.0081,-0.0041,-0.0035,-0.0031,-0.0024,-0.0075,-0.0073,-0.0085,-0.0085,-0.0085,0,0,0.0138,0.0137,0.0143,0.0143,0.0133,0.0144,0.0111,0.0112,0.0118,0.0067,0.0067,0.0034,-0.0001,-0.0009,-0.0015,-0.0027,-0.0049,-0.003,-0.0025,-0.0021,-0.0073,-0.0072,-0.0072,-0.0084,-0.0084,-0.0084,0,0,0.017,0.0165,0.0187,0.0185,0.0178,0.0167,0.0171,0.0154,0.0144,0.0138,0.0102,0.0078,0.005,0.0026,0.001,0.0029,-0.0022,0.0022,0.0062,0.0013,0.0013,0.0013,-0.0037,-0.0042,0.0026,0.0027,0.0027,0,0.0181,0.021,0.0191,0.0211,0.022,0.0184,0.0211,0.0195,0.0174,0.0169,0.0148,0.0098,0.0067,0.0053,0.006,0.0041,0.0003,0.0043,0.0019,0.0018,0.0017,-0.0035,-0.0041,0.003,0.0029,0.0029,0.0029,0,0.023,0.0252,0.0265,0.0282,0.0285,0.0303,0.0284,0.028,0.0259,0.024,0.0218,0.0166,0.0138,0.0122,0.0098,0.008,0.0052,0.003,0.0006,0.0022,-0.0034,-0.0041,0.0034,0.0033,0.0032,0.0031,0,0,0.026,0.0295,0.03,0.0327,0.0328,0.0341,0.0348,0.0349,0.0359,0.0313,0.0315,0.0265,0.0228,0.0207,0.0164,0.0121,0.0077,0.008,0.0076,0.0034,-0.0036,-0.0043,-0.0053,0.0049,0.0048,0.0047,-0.0072,0,0.0305,0.0369,0.037,0.0427,0.046,0.0437,0.0452,0.0442,0.0419,0.0407,0.0336,0.0322,0.0263,0.0253,0.0197,0.011,0.006,0.0111,-0.0048,-0.0053,-0.0059,-0.0061,0.0045,-0.0078,-0.008,-0.0082,-0.0083,0,0.0352,0.0393,0.0464,0.0514,0.0526,0.0551,0.0572,0.058,0.0543,0.0522,0.0475,0.0421,0.0353,0.0301,0.0147,0.0182,0.0084,0.0006,-0.0001,-0.0034,-0.0075,-0.0099,-0.0098,-0.0096,-0.0095,-0.0094,-0.0093,0,0.0393,0.0458,0.0524,0.0541,0.0586,0.0612,0.0628,0.0617,0.0644,0.0595,0.0603,0.0495,0.0454,0.0313,0.0151,0.0149,-0.0029,-0.0054,-0.0158,-0.0161,-0.0147,-0.0146,-0.0163,-0.0163,-0.0163,-0.0162,-0.0162,0,0.0443,0.0495,0.0553,0.059,0.0671,0.0672,0.0742,0.0731,0.0739,0.0775,0.0671,0.066,0.0457,0.0333,0.0171,-0.0018,-0.0019,-0.0152,-0.019,-0.0117,-0.0111,-0.0153,-0.015,-0.0167,-0.0166,-0.0165,-0.0164,0,0.0478,0.0513,0.0597,0.0667,0.0696,0.0751,0.0837,0.0886,0.0871,0.0911,0.0906,0.0787,0.0613,0.0402,0.0163,0.0026,-0.0164,-0.023,-0.0136,-0.0167,-0.027,-0.0263,-0.0358,-0.0359,-0.036,-0.0361,-0.0362,0,0.0503,0.0551,0.0659,0.072,0.076,0.0847,0.0915,0.0947,0.1,0.0987,0.1008,0.0865,0.0754,0.0413,0.0172,-0.015,-0.0193,-0.0294,-0.0285,-0.0261,-0.029,-0.028,-0.0272,-0.0363,-0.0364,-0.0364,-0.0364,0,0.0552,0.059,0.0659,0.0789,0.0881,0.099,0.108,0.1133,0.1162,0.116,0.1099,0.0917,0.0713,0.0424,0.0172,-0.0058,-0.0232,-0.0306,-0.0306,-0.0298,-0.0269,-0.0294,-0.0284,-0.0368,-0.0367,-0.0367,-0.0367,0,0.0588,0.0641,0.0735,0.0849,0.0971,0.1084,0.1136,0.1193,0.1242,0.1219,0.1191,0.0961,0.0823,0.0471,0.0239,0.0009,-0.0052,-0.0124,-0.0134,-0.0133,-0.0038,0.0033,-0.0003,0,0,0,0,0,0.0617,0.0678,0.0788,0.0916,0.104,0.1115,0.1226,0.1266,0.1296,0.1272,0.1236,0.1044,0.0689,0.0529,0.0299,0.0204,-0.0101,-0.0075,-0.0191,-0.0388,-0.0384,-0.0311,0,0,0,0,0,0,0.0635,0.0733,0.0787,0.0948,0.1045,0.1191,0.1267,0.1294,0.1276,0.1261,0.1077,0.0984,0.0638,0.0823,0.0293,0.0221,0.0115,-0.0241,-0.0246,-0.039,-0.0386,-0.0383,-0.0307,0,0,0,0,0]}]]